Simultaneous Nadir Overpasses (SNOs) Predictions

Prediction of SNOs between LANDSAT-8 and METOP-B Satellite Orbit:

Table of predicted SNOs for the next 14.0 days since TLE Epoch: 9/19/2020
Index Date (LANDSAT-8) Time (LANDSAT-8) Lat,Lon (LANDSAT-8) SZA (LANDSAT-8 ) Date (METOP-B) Time (METOP-B) Lat,Lon (METOP-B) SZA (METOP-B ) Distance(km) Time Diff (sec)
1 09/20/2020 17:31:07 81.19, -41.74 82.80 09/20/2020 17:30:17 81.18, -41.91 82.75 3.10 50
2 09/20/2020 18:20:33 -81.21, 126.25 97.14 09/20/2020 18:20:56 -81.20, 126.14 97.15 1.98 23
3 09/23/2020 13:05:23 81.19, 24.72 83.92 09/23/2020 13:04:37 81.18, 24.61 83.88 1.99 46
4 09/23/2020 13:54:49 -81.21,-167.27 96.02 09/23/2020 13:55:16 -81.20,-167.29 96.01 0.65 27
5 09/26/2020 08:39:39 81.19, 91.16 85.03 09/26/2020 08:38:57 81.18, 91.12 85.01 0.83 42
6 09/26/2020 09:29:05 -81.21,-100.81 94.90 09/26/2020 09:29:36 -81.21,-100.74 94.88 1.16 31
7 09/29/2020 04:13:54 81.19, 157.59 86.15 09/29/2020 04:13:16 81.19, 157.61 86.13 0.41 38
8 09/29/2020 05:03:20 -81.21, -34.36 93.78 09/29/2020 05:03:55 -81.21, -34.20 93.75 2.71 35
9 10/01/2020 23:48:10 81.19,-136.00 87.25 10/01/2020 23:47:36 81.19,-135.91 87.25 1.70 34
